This is the latest recevied weather packets stored in our database for station/object IN3MWE-10. If no packets are shown the sender has not sent any weather packets the latest 10 day(s).
| Time | Temp. | Humidity | Pressure | Rain* | Wind** | Luminosity | Snow |
|---|---|---|---|---|---|---|---|
| 1787637015 | 20° C | 100% | 975.9 hPa | - | - | - | - |
| 1787636115 | 20° C | 100% | 976.3 hPa | - | - | - | - |
| 1787635215 | 19.44° C | 100% | 976.4 hPa | - | - | - | - |
| 1787634315 | 19.44° C | 100% | 976.5 hPa | - | - | - | - |
| 1787633415 | 19.44° C | 100% | 976.3 hPa | - | - | - | - |
| 1787632514 | 20° C | 100% | 976.2 hPa | - | - | - | - |
| 1787631614 | 19.44° C | 100% | 976.2 hPa | - | - | - | - |
| 1787630714 | 20° C | 100% | 976.5 hPa | - | - | - | - |
| 1787629814 | 20° C | 100% | 976.6 hPa | - | - | - | - |
| 1787628914 | 20.56° C | 100% | 976.7 hPa | - | - | - | - |
| 1787628014 | 20° C | 100% | 976.3 hPa | - | - | - | - |
| 1787627114 | 20° C | 100% | 976.3 hPa | - | - | - | - |
| 1787626226 | 20.56° C | 100% | 976.4 hPa | - | - | - | - |
| 1787625350 | 20.56° C | 100% | 976.4 hPa | - | - | - | - |
| 1787624426 | 20.56° C | 100% | 976.3 hPa | - | - | - | - |
| 1787623526 | 20.56° C | 100% | 976.5 hPa | - | - | - | - |
| 1787622626 | 20.56° C | 100% | 976.7 hPa | - | - | - | - |
| 1787621725 | 20.56° C | 100% | 977.1 hPa | - | - | - | - |
| 1787620825 | 21.67° C | 83% | 977.4 hPa | - | - | - | - |
| 1787619925 | 21.67° C | 85% | 977.5 hPa | - | - | - | - |
| 1787619025 | 22.22° C | 83% | 977.4 hPa | - | - | - | - |
| 1787618125 | 22.22° C | 82% | 977.8 hPa | - | - | - | - |
| 1787617225 | 22.22° C | 82% | 977.8 hPa | - | - | - | - |
| 1787616325 | 22.22° C | 80% | 977.9 hPa | - | - | - | - |
| 1787615424 | 22.22° C | 81% | 977.9 hPa | - | - | - | - |
* Rain since midnight (hover to see other rain measurements)
** Current wind speed in m/s (hover to see current wind gust speed)